Time,TemperatureF,DewpointF,PressureIn,WindDirection,WindDirectionDegrees,WindSpeedMPH,WindSpeedGustMPH,Humidity,HourlyPrecipIn,Conditions,Clouds,dailyrainin,SoftwareType,DateUTC
2013-01-07 00:00:00,18.0,-99.9,-100.00,WNW,298,9.0,10.0,-999,-99.99,,,-99.99,,2013-01-07 07:00:00,
2013-01-07 00:53:00,18.0,-99.9,-100.00,WNW,298,9.0,10.0,-999,-99.99,,,-99.99,,2013-01-07 07:53:00,
2013-01-07 01:00:00,20.0,-99.9,-100.00,WNW,289,6.0,12.0,-999,-99.99,,,-99.99,,2013-01-07 08:00:00,
2013-01-07 01:53:00,20.0,-99.9,-100.00,WNW,289,6.0,12.0,-999,-99.99,,,-99.99,,2013-01-07 08:53:00,
2013-01-07 02:00:00,22.0,-99.9,-100.00,WNW,286,5.0,6.0,-999,-99.99,,,-99.99,,2013-01-07 09:00:00,
2013-01-07 02:53:00,22.0,-99.9,-100.00,WNW,286,5.0,6.0,-999,-99.99,,,-99.99,,2013-01-07 09:53:00,
2013-01-07 03:00:00,23.0,-99.9,-100.00,WSW,247,5.0,7.0,-999,-99.99,,,-99.99,,2013-01-07 10:00:00,
2013-01-07 03:53:00,23.0,-99.9,-100.00,WSW,247,5.0,7.0,-999,-99.99,,,-99.99,,2013-01-07 10:53:00,
2013-01-07 04:00:00,25.0,-99.9,-100.00,West,268,9.0,11.0,-999,-99.99,,,-99.99,,2013-01-07 11:00:00,
2013-01-07 04:53:00,25.0,-99.9,-100.00,West,268,9.0,11.0,-999,-99.99,,,-99.99,,2013-01-07 11:53:00,
2013-01-07 05:00:00,25.0,-99.9,-100.00,WSW,250,8.0,11.0,-999,-99.99,,,-99.99,,2013-01-07 12:00:00,
2013-01-07 05:53:00,25.0,-99.9,-100.00,WSW,250,8.0,11.0,-999,-99.99,,,-99.99,,2013-01-07 12:53:00,
2013-01-07 06:00:00,25.0,-99.9,-100.00,NW,305,2.0,5.0,-999,-99.99,,,-99.99,,2013-01-07 13:00:00,
2013-01-07 06:53:00,25.0,-99.9,-100.00,NW,305,2.0,5.0,-999,-99.99,,,-99.99,,2013-01-07 13:53:00,
2013-01-07 07:00:00,23.0,-99.9,-100.00,SSW,197,3.0,4.0,-999,-99.99,,,-99.99,,2013-01-07 14:00:00,
2013-01-07 07:53:00,23.0,-99.9,-100.00,SSW,197,3.0,4.0,-999,-99.99,,,-99.99,,2013-01-07 14:53:00,
2013-01-07 08:00:00,23.0,-99.9,-100.00,WSW,247,8.0,8.0,-999,-99.99,,,-99.99,,2013-01-07 15:00:00,
2013-01-07 08:53:00,23.0,-99.9,-100.00,WSW,247,8.0,8.0,-999,-99.99,,,-99.99,,2013-01-07 15:53:00,
2013-01-07 09:00:00,27.0,-99.9,-100.00,NNE,12,13.0,15.0,-999,-99.99,,,-99.99,,2013-01-07 16:00:00,
2013-01-07 09:53:00,27.0,-99.9,-100.00,NNE,12,13.0,15.0,-999,-99.99,,,-99.99,,2013-01-07 16:53:00,
2013-01-07 10:00:00,33.0,-99.9,-100.00,NE,35,14.0,17.0,-999,-99.99,,,-99.99,,2013-01-07 17:00:00,
2013-01-07 10:53:00,33.0,-99.9,-100.00,NE,35,14.0,17.0,-999,-99.99,,,-99.99,,2013-01-07 17:53:00,
2013-01-07 11:00:00,37.0,-99.9,-100.00,West,259,9.0,11.0,-999,-99.99,,,-99.99,,2013-01-07 18:00:00,
2013-01-07 11:53:00,37.0,-99.9,-100.00,West,259,9.0,11.0,-999,-99.99,,,-99.99,,2013-01-07 18:53:00,
2013-01-07 12:00:00,41.0,-99.9,-100.00,WNW,292,3.0,4.0,-999,-99.99,,,-99.99,,2013-01-07 19:00:00,
2013-01-07 12:53:00,41.0,-99.9,-100.00,WNW,292,3.0,4.0,-999,-99.99,,,-99.99,,2013-01-07 19:53:00,
2013-01-07 13:00:00,44.0,-99.9,-100.00,SE,124,0.0,0.0,-999,-99.99,,,-99.99,,2013-01-07 20:00:00,
2013-01-07 13:53:00,44.0,-99.9,-100.00,SE,124,0.0,0.0,-999,-99.99,,,-99.99,,2013-01-07 20:53:00,
2013-01-07 14:00:00,50.0,-99.9,-100.00,South,180,0.0,3.0,-999,-99.99,,,-99.99,,2013-01-07 21:00:00,
2013-01-07 14:53:00,50.0,-99.9,-100.00,South,180,0.0,3.0,-999,-99.99,,,-99.99,,2013-01-07 21:53:00,
2013-01-07 15:00:00,46.0,-99.9,-100.00,South,186,7.0,8.0,-999,-99.99,,,-99.99,,2013-01-07 22:00:00,
2013-01-07 15:53:00,46.0,-99.9,-100.00,South,186,7.0,8.0,-999,-99.99,,,-99.99,,2013-01-07 22:53:00,
2013-01-07 16:00:00,44.0,-99.9,-100.00,SSE,155,3.0,4.0,-999,-99.99,,,-99.99,,2013-01-07 23:00:00,
2013-01-07 16:53:00,44.0,-99.9,-100.00,SSE,155,3.0,4.0,-999,-99.99,,,-99.99,,2013-01-07 23:53:00,
2013-01-07 17:00:00,39.0,-99.9,-100.00,NW,310,1.0,3.0,-999,-99.99,,,-99.99,,2013-01-08 00:00:00,
2013-01-07 17:53:00,39.0,-99.9,-100.00,NW,310,1.0,3.0,-999,-99.99,,,-99.99,,2013-01-08 00:53:00,
2013-01-07 18:00:00,33.0,-99.9,-100.00,NW,304,2.0,2.0,-999,-99.99,,,-99.99,,2013-01-08 01:00:00,
2013-01-07 18:53:00,33.0,-99.9,-100.00,NW,304,2.0,2.0,-999,-99.99,,,-99.99,,2013-01-08 01:53:00,
2013-01-07 19:00:00,31.0,-99.9,-100.00,West,265,10.0,12.0,-999,-99.99,,,-99.99,,2013-01-08 02:00:00,
2013-01-07 19:53:00,31.0,-99.9,-100.00,West,265,10.0,12.0,-999,-99.99,,,-99.99,,2013-01-08 02:53:00,
2013-01-07 20:00:00,29.0,-99.9,-100.00,West,268,3.0,3.0,-999,-99.99,,,-99.99,,2013-01-08 03:00:00,
2013-01-07 20:53:00,29.0,-99.9,-100.00,West,268,3.0,3.0,-999,-99.99,,,-99.99,,2013-01-08 03:53:00,
2013-01-07 21:00:00,27.0,-99.9,-100.00,NW,325,1.0,2.0,-999,-99.99,,,-99.99,,2013-01-08 04:00:00,
2013-01-07 21:52:00,27.0,-99.9,-100.00,NW,325,1.0,2.0,-999,-99.99,,,-99.99,,2013-01-08 04:52:00,
2013-01-07 22:00:00,25.0,-99.9,-100.00,East,96,1.0,3.0,-999,-99.99,,,-99.99,,2013-01-08 05:00:00,
2013-01-07 22:53:00,25.0,-99.9,-100.00,East,96,1.0,3.0,-999,-99.99,,,-99.99,,2013-01-08 05:53:00,
2013-01-07 23:00:00,23.0,-99.9,-100.00,North,9,1.0,2.0,-999,-99.99,,,-99.99,,2013-01-08 06:00:00,
2013-01-07 23:53:00,23.0,-99.9,-100.00,North,9,1.0,2.0,-999,-99.99,,,-99.99,,2013-01-08 06:53:00,